DW8618 Nerja ES current weather conditions

sailwx.info

Wind from 238

Air temperature 22.8° C
Dewpoint 20.5° C

Last reported at 2019-Jul-22 05:01 UTC.
Time now 2019-Jul-22 05:52 UTC

Location: N 36°46' W 003°52'.
View on Google Maps.

See reports from other nearby stations

  
Tides and Currents Weather Stations Pressure Air Temp Water Temp Dewpoint Dewpoint Depression Visibility Wind Speed Wind Dir Waves Ship Positions
date/time (UTC)wind fromknots sea level pressurealtimeterstation pressurevisibilityair tempwater tempwave heightnotes
2019-Jul-22 05:01 238 22.8
2019-Jul-22 04:45 300 22.2
2019-Jul-22 04:30 073 22.8
2019-Jul-22 04:15 073 22.8
2019-Jul-22 04:01 073 22.8
2019-Jul-22 03:45 065 22.8
2019-Jul-22 03:31 107 23.3
2019-Jul-22 03:15 309 22.8
2019-Jul-22 03:01 309 22.8
2019-Jul-22 02:46 309 23.3
2019-Jul-22 02:30 309 23.3
2019-Jul-22 02:15 145 23.3
2019-Jul-22 02:01 145 23.9
2019-Jul-22 01:31 150 23.9
2019-Jul-22 01:15 148 23.9
2019-Jul-22 01:01 096 23.9
2019-Jul-22 00:46 088 24.4
2019-Jul-22 00:30 105 24.4
2019-Jul-22 00:15 103 25.0
2019-Jul-22 00:01 094 25.6
2019-Jul-21 23:45 104 25.6
2019-Jul-21 23:30 145 25.6
2019-Jul-21 23:01 222 25.6
2019-Jul-21 22:45 261 25.6
2019-Jul-21 22:30 299 25.0
2019-Jul-21 22:16 312 25.0
2019-Jul-21 21:16 296 25.6
2019-Jul-21 20:01 169 26.1
2019-Jul-21 19:45 168 26.1
2019-Jul-21 19:30 167 26.1
2019-Jul-21 19:15 167 25.6
2019-Jul-21 19:01 161 26.1
2019-Jul-21 18:45 157 26.1
2019-Jul-21 18:30 192 26.1
2019-Jul-21 18:15 188 26.1
2019-Jul-21 18:01 212 26.1
2019-Jul-21 17:45 203 26.7
2019-Jul-21 17:31 236 26.7
2019-Jul-21 17:15 237 26.7
2019-Jul-21 17:01 247 26.7
2019-Jul-21 16:45 227 26.7
2019-Jul-21 16:30 186 1 gusting 5 26.7
2019-Jul-21 16:15 196 27.2
2019-Jul-21 16:01 241 27.2
2019-Jul-21 15:45 217 27.8
2019-Jul-21 15:31 238 27.2
2019-Jul-21 15:15 192 1 gusting 6 27.8
2019-Jul-21 15:01 219 27.8
2019-Jul-21 14:45 199 27.8
2019-Jul-21 14:31 187 1 gusting 5 27.2
2019-Jul-21 14:15 192 0 gusting 6 27.2
2019-Jul-21 14:01 182 27.2
2019-Jul-21 13:45 181 28.3
2019-Jul-21 13:31 182 27.2
2019-Jul-21 13:15 180 27.2
2019-Jul-21 13:01 182 2 gusting 6 27.2
2019-Jul-21 12:45 192 2 gusting 6 27.2
2019-Jul-21 12:31 190 1 gusting 6 27.2
2019-Jul-21 12:16 190 27.2
2019-Jul-21 12:01 184 0 gusting 6 26.7
2019-Jul-21 11:45 201 0 gusting 6 26.7
2019-Jul-21 11:30 205 26.1
2019-Jul-21 11:16 192 2 gusting 6 26.1
2019-Jul-21 11:01 190 2 gusting 6 26.1
2019-Jul-21 10:45 196 2 gusting 8 26.7
2019-Jul-21 10:31 192 26.7
2019-Jul-21 10:15 209 0 gusting 6 26.1
2019-Jul-21 10:01 197 2 gusting 6 26.1
2019-Jul-21 09:45 171 26.7
2019-Jul-21 09:31 195 26.1
2019-Jul-21 09:15 205 26.1
2019-Jul-21 09:01 217 0 gusting 4 26.1
2019-Jul-21 08:46 202 26.1
2019-Jul-21 08:30 207 0 gusting 6 26.1
2019-Jul-21 08:16 183 26.1
2019-Jul-21 08:01 213 0 gusting 5 26.1
2019-Jul-21 07:45 217 26.7
2019-Jul-21 07:31 289 26.7
2019-Jul-21 07:15 288 26.7
2019-Jul-21 07:01 308 26.1
2019-Jul-21 06:45 293 25.0
2019-Jul-21 06:31 337 23.9
2019-Jul-21 06:15 355 23.3
2019-Jul-21 06:01 317 22.8
2019-Jul-21 05:45 316 22.8
2019-Jul-21 05:30 320 22.8
2019-Jul-21 05:15 138 22.8
2019-Jul-21 05:01 090 22.8
2019-Jul-21 04:46 098 0 gusting 3 22.8
2019-Jul-21 04:31 173 22.8
2019-Jul-21 04:15 173 22.8
2019-Jul-21 04:01 175 23.3
2019-Jul-21 03:45 101 23.3
2019-Jul-21 03:31 095 23.9
2019-Jul-21 03:15 140 24.4
2019-Jul-21 03:01 327 24.4
2019-Jul-21 02:45 285 24.4
2019-Jul-21 02:30 306 24.4
2019-Jul-21 02:16 088 24.4
2019-Jul-21 02:01 323 24.4
2019-Jul-21 01:46 321 24.4
2019-Jul-21 01:31 343 24.4
2019-Jul-21 01:15 350 24.4
2019-Jul-21 01:01 319 24.4
2019-Jul-21 00:45 318 24.4
2019-Jul-21 00:30 319 25.0
2019-Jul-21 00:16 321 25.0
2019-Jul-21 00:01 323 25.0
2019-Jul-20 23:46 323 25.0
2019-Jul-20 23:30 355 25.0
2019-Jul-20 23:15 017 25.0
2019-Jul-20 23:01 014 25.6
2019-Jul-20 22:46 005 25.6
2019-Jul-20 22:30 342 25.0
2019-Jul-20 22:15 301 25.0
2019-Jul-20 22:01 317 25.0
2019-Jul-20 21:46 307 25.6
2019-Jul-20 21:30 317 25.0
2019-Jul-20 21:15 346 25.6
2019-Jul-20 21:01 332 25.6
2019-Jul-20 20:45 334 25.6
2019-Jul-20 20:31 296 25.6
2019-Jul-20 20:15 315 25.6
2019-Jul-20 20:01 278 25.6
2019-Jul-20 19:45 179 25.6
2019-Jul-20 19:30 172 26.1
2019-Jul-20 19:16 171 26.1
2019-Jul-20 19:01 165 26.1
2019-Jul-20 18:45 178 26.7
2019-Jul-20 18:30 185 26.7
2019-Jul-20 18:16 187 26.7
2019-Jul-20 18:01 194 26.7
2019-Jul-20 17:45 179 26.7
2019-Jul-20 17:30 167 26.7
2019-Jul-20 17:16 182 1 gusting 6 26.7
2019-Jul-20 17:01 194 0 gusting 6 27.2
2019-Jul-20 16:45 195 3 gusting 7 27.2
2019-Jul-20 16:30 175 27.2
2019-Jul-20 16:15 196 3 gusting 6 27.2
2019-Jul-20 16:01 184 1 gusting 6 27.2
2019-Jul-20 15:45 215 27.2
2019-Jul-20 15:30 197 27.2
2019-Jul-20 15:15 185 27.2
2019-Jul-20 15:01 186 0 gusting 7 27.2
2019-Jul-20 14:45 210 3 gusting 6 27.2
2019-Jul-20 14:30 190 3 gusting 6 27.2
2019-Jul-20 14:15 195 27.8
2019-Jul-20 14:01 172 0 gusting 7 27.8
2019-Jul-20 13:46 186 5 gusting 7 27.8
2019-Jul-20 13:30 194 0 gusting 5 27.8
2019-Jul-20 13:15 200 2 gusting 6 27.2
2019-Jul-20 13:01 184 4 gusting 9 27.2
2019-Jul-20 12:46 212 1 gusting 6 27.8
2019-Jul-20 12:30 196 4 gusting 7 27.2
2019-Jul-20 12:15 211 4 gusting 9 26.7
2019-Jul-20 12:01 216 3 gusting 8 27.2
2019-Jul-20 11:45 196 27.2
2019-Jul-20 11:31 173 1 gusting 7 26.7
2019-Jul-20 11:15 197 4 gusting 10 26.7
2019-Jul-20 11:01 187 1 gusting 8 27.2
2019-Jul-20 10:45 165 0 gusting 7 27.2
2019-Jul-20 10:31 198 1 gusting 8 27.2
2019-Jul-20 10:15 190 1 gusting 7 27.2
2019-Jul-20 10:01 190 0 gusting 6 27.2
2019-Jul-20 09:45 198 27.2
2019-Jul-20 09:30 201 0 gusting 7 27.2
2019-Jul-20 09:16 199 2 gusting 10 26.7
2019-Jul-20 09:01 194 3 gusting 6 27.2
2019-Jul-20 08:46 205 0 gusting 6 27.2
2019-Jul-20 08:31 218 27.2
2019-Jul-20 08:15 204 0 gusting 5 26.7
2019-Jul-20 08:01 172 26.7
2019-Jul-20 07:45 142 26.7
2019-Jul-20 07:30 355 26.7
2019-Jul-20 07:16 360 26.1
2019-Jul-20 07:01 355 25.6
2019-Jul-20 06:46 355 25.0
2019-Jul-20 06:30 355 23.9
2019-Jul-20 06:15 355 23.9
2019-Jul-20 06:01 005 23.3
2019-Jul-20 05:45 005 22.8
2019-Jul-20 05:30 005 22.8
2019-Jul-20 05:15 360 22.8
2019-Jul-20 05:01 088 23.3